TimeCST,TemperatureF,Dew PointF,Humidity,Sea Level PressureIn,VisibilityMPH,Wind Direction,Wind SpeedMPH,Gust SpeedMPH,PrecipitationIn,Events,Conditions,WindDirDegrees,DateUTC
12:15 AM,23.0,21.2,93,30.01,2.5,South,10.4,-,N/A,,Overcast,190,2014-01-10 06:15:00
12:35 AM,23.0,21.2,93,30.00,2.5,South,9.2,-,N/A,,Overcast,190,2014-01-10 06:35:00
12:55 AM,23.0,21.2,93,30.00,2.5,South,8.1,-,N/A,,Overcast,190,2014-01-10 06:55:00
1:15 AM,23.0,23.0,100,29.99,2.0,South,6.9,-,N/A,,Overcast,180,2014-01-10 07:15:00
1:35 AM,23.0,23.0,100,29.98,1.2,South,6.9,-,N/A,,Overcast,180,2014-01-10 07:35:00
1:55 AM,23.0,23.0,100,29.98,1.0,South,5.8,-,N/A,,Overcast,170,2014-01-10 07:55:00
2:15 AM,24.8,23.0,93,29.97,1.0,South,5.8,-,N/A,,Overcast,170,2014-01-10 08:15:00
2:35 AM,24.8,23.0,93,29.97,1.0,SSE,4.6,-,N/A,,Overcast,150,2014-01-10 08:35:00
2:55 AM,24.8,23.0,93,29.95,1.0,SE,4.6,-,N/A,,Overcast,140,2014-01-10 08:55:00
3:15 AM,24.8,23.0,93,29.95,1.0,SSE,4.6,-,N/A,,Overcast,150,2014-01-10 09:15:00
3:35 AM,24.8,24.8,100,29.93,1.0,SE,4.6,-,N/A,,Overcast,140,2014-01-10 09:35:00
3:55 AM,24.8,24.8,100,29.92,1.0,ESE,3.5,-,N/A,,Overcast,120,2014-01-10 09:55:00
4:15 AM,24.8,24.8,100,29.91,1.2,SE,4.6,-,N/A,,Overcast,130,2014-01-10 10:15:00
4:35 AM,24.8,24.8,100,29.90,1.0,ESE,3.5,-,N/A,,Overcast,120,2014-01-10 10:35:00
4:55 AM,26.6,24.8,93,29.88,0.8,SE,5.8,-,N/A,,Overcast,130,2014-01-10 10:55:00
5:15 AM,26.6,26.6,100,29.86,0.8,East,3.5,-,N/A,,Overcast,100,2014-01-10 11:15:00
5:35 AM,26.6,26.6,100,29.85,1.5,ESE,4.6,-,N/A,,Overcast,120,2014-01-10 11:35:00
5:55 AM,26.6,26.6,100,29.84,1.2,SE,6.9,-,N/A,,Overcast,140,2014-01-10 11:55:00
6:15 AM,28.4,28.4,100,29.83,1.0,SE,9.2,-,N/A,,Overcast,140,2014-01-10 12:15:00
6:35 AM,28.4,28.4,100,29.83,1.0,SE,8.1,-,N/A,,Overcast,140,2014-01-10 12:35:00
6:55 AM,28.4,28.4,100,29.82,1.0,SE,8.1,-,N/A,,Overcast,140,2014-01-10 12:55:00
7:15 AM,28.4,28.4,100,29.83,1.0,SSE,6.9,13.8,N/A,,Overcast,150,2014-01-10 13:15:00
7:35 AM,28.4,28.4,100,29.81,1.0,SE,8.1,-,N/A,,Overcast,140,2014-01-10 13:35:00
7:55 AM,30.2,28.4,93,29.81,0.5,SE,8.1,-,N/A,,Overcast,140,2014-01-10 13:55:00
8:15 AM,30.2,28.4,93,29.81,0.8,SE,8.1,-,N/A,,Overcast,140,2014-01-10 14:15:00
8:35 AM,30.2,30.2,100,29.80,0.8,SE,10.4,-,N/A,,Overcast,140,2014-01-10 14:35:00
8:55 AM,30.2,30.2,100,29.79,0.8,SE,10.4,-,N/A,,Overcast,140,2014-01-10 14:55:00
9:15 AM,30.2,30.2,100,29.78,1.0,SE,9.2,-,N/A,,Overcast,140,2014-01-10 15:15:00
9:35 AM,30.2,30.2,100,29.77,1.5,SE,9.2,-,N/A,,Overcast,140,2014-01-10 15:35:00
9:55 AM,32.0,32.0,100,29.76,1.5,SE,8.1,-,N/A,,Overcast,130,2014-01-10 15:55:00
10:15 AM,32.0,32.0,100,29.75,1.5,SE,6.9,-,N/A,,Overcast,130,2014-01-10 16:15:00
10:35 AM,32.0,32.0,100,29.74,1.0,SE,6.9,-,N/A,,Overcast,140,2014-01-10 16:35:00
10:55 AM,32.0,32.0,100,29.72,0.5,SE,8.1,-,N/A,Fog,Fog,140,2014-01-10 16:55:00
11:15 AM,32.0,32.0,100,29.70,0.2,North,-9999.0,-,N/A,Fog,Fog,0,2014-01-10 17:15:00
11:35 AM,32.0,32.0,100,29.67,0.2,North,-9999.0,-,N/A,,Overcast,0,2014-01-10 17:35:00
11:55 AM,32.0,32.0,100,29.66,0.2,North,-9999.0,-,N/A,Fog,Fog,0,2014-01-10 17:55:00
12:15 PM,32.0,32.0,100,29.64,0.5,Calm,Calm,-,N/A,Fog,Fog,0,2014-01-10 18:15:00
12:35 PM,32.0,32.0,100,29.65,0.8,SE,4.6,-,N/A,,Overcast,140,2014-01-10 18:35:00
12:55 PM,32.0,32.0,100,29.62,0.8,SE,8.1,18.4,N/A,Rain,Light Rain,140,2014-01-10 18:55:00
1:15 PM,32.0,32.0,100,29.59,1.0,East,4.6,-,N/A,Rain,Light Rain,90,2014-01-10 19:15:00
1:35 PM,32.0,32.0,100,29.57,1.0,North,-9999.0,-,N/A,,Overcast,0,2014-01-10 19:35:00
1:55 PM,32.0,32.0,100,29.57,1.0,Calm,Calm,-,N/A,Rain,Light Rain,0,2014-01-10 19:55:00
2:15 PM,33.8,33.8,100,29.57,1.0,Calm,Calm,-,N/A,,Overcast,0,2014-01-10 20:15:00
2:35 PM,33.8,33.8,100,29.56,0.8,Calm,Calm,-,N/A,,Light Drizzle,0,2014-01-10 20:35:00
2:55 PM,33.8,33.8,100,29.55,1.0,NNE,3.5,-,N/A,,Light Drizzle,30,2014-01-10 20:55:00
3:15 PM,33.8,33.8,100,29.54,1.8,Calm,Calm,-,N/A,,Light Drizzle,0,2014-01-10 21:15:00
3:35 PM,33.8,33.8,100,29.55,2.5,Calm,Calm,-,N/A,,Overcast,0,2014-01-10 21:35:00
3:55 PM,33.8,33.8,100,29.55,2.0,Calm,Calm,-,N/A,,Overcast,0,2014-01-10 21:55:00
4:15 PM,33.8,33.8,100,29.55,2.0,Calm,Calm,-,N/A,,Overcast,0,2014-01-10 22:15:00
4:35 PM,32.0,32.0,100,29.55,2.0,Calm,Calm,-,N/A,,Overcast,0,2014-01-10 22:35:00
4:55 PM,32.0,32.0,100,29.55,2.0,North,5.8,-,N/A,,Overcast,350,2014-01-10 22:55:00
5:15 PM,32.0,32.0,100,29.54,1.5,North,4.6,-,N/A,,Light Drizzle,350,2014-01-10 23:15:00
5:35 PM,32.0,32.0,100,29.54,1.5,Calm,Calm,-,N/A,,Overcast,0,2014-01-10 23:35:00
5:55 PM,32.0,32.0,100,29.54,1.0,Calm,Calm,-,N/A,,Overcast,0,2014-01-10 23:55:00
6:15 PM,32.0,32.0,100,29.54,1.0,Calm,Calm,-,N/A,,Light Drizzle,0,2014-01-11 00:15:00
6:35 PM,32.0,32.0,100,29.54,3.0,Calm,Calm,-,N/A,,Overcast,0,2014-01-11 00:35:00
6:55 PM,32.0,32.0,100,29.54,3.0,WNW,4.6,-,N/A,,Overcast,290,2014-01-11 00:55:00
7:15 PM,32.0,32.0,100,29.55,3.0,WNW,5.8,-,N/A,,Overcast,290,2014-01-11 01:15:00
7:35 PM,32.0,32.0,100,29.55,4.0,WNW,6.9,-,N/A,,Overcast,290,2014-01-11 01:35:00
7:55 PM,32.0,32.0,100,29.55,2.5,WNW,6.9,-,N/A,,Overcast,290,2014-01-11 01:55:00
8:15 PM,32.0,32.0,100,29.55,3.0,WNW,6.9,-,N/A,,Overcast,290,2014-01-11 02:15:00
8:35 PM,32.0,32.0,100,29.54,4.0,WNW,6.9,-,N/A,,Overcast,290,2014-01-11 02:35:00
8:55 PM,32.0,32.0,100,29.55,4.0,West,6.9,-,N/A,,Overcast,280,2014-01-11 02:55:00
9:15 PM,32.0,32.0,100,29.55,4.0,West,8.1,-,N/A,,Overcast,280,2014-01-11 03:15:00
9:35 PM,32.0,32.0,100,29.55,5.0,WNW,10.4,-,N/A,,Overcast,290,2014-01-11 03:35:00
9:55 PM,32.0,32.0,100,29.55,5.0,WNW,9.2,-,N/A,,Overcast,290,2014-01-11 03:55:00
10:15 PM,32.0,32.0,100,29.55,6.0,WNW,8.1,-,N/A,,Overcast,290,2014-01-11 04:15:00
10:35 PM,32.0,32.0,100,29.56,6.0,West,6.9,-,N/A,,Overcast,280,2014-01-11 04:35:00
10:55 PM,32.0,32.0,100,29.56,6.0,West,9.2,-,N/A,,Overcast,280,2014-01-11 04:55:00
11:15 PM,32.0,32.0,100,29.56,5.0,West,5.8,-,N/A,,Overcast,280,2014-01-11 05:15:00
11:35 PM,32.0,32.0,100,29.56,5.0,West,6.9,-,N/A,,Overcast,270,2014-01-11 05:35:00
11:55 PM,32.0,32.0,100,29.55,5.0,West,6.9,-,N/A,,Overcast,280,2014-01-11 05:55:00